Weather History for Montrose, CO

Change the Weather History Date:

Monday, October 24, 2011

  Actual Average Record
Temperature  
Mean Temperature 54 °F 47 °F  
Max Temperature 75 °F 61 °F 75 °F (2011)
Min Temperature 33 °F 32 °F 26 °F (1996)
Degree Days  
Heating Degree Days 11 18  
Month to date heating degree days 326  
Since 1 July heating degree days 453  
Cooling Degree Days 0 0  
Month to date cooling degree days 0  
Year to date cooling degree days 643  
Growing Degree Days 4 (Base 50)    
Moisture  
Dew Point 20 °F    
Average Humidity 30    
Maximum Humidity 54    
Minimum Humidity 14    
Precipitation  
Precipitation 0.00 in 0.02 in 0.07 in (1997)
Month to date precipitation 1.02  
Year to date precipitation 9.67  
Sea Level Pressure  
Sea Level Pressure 30.04 in    
Wind  
Wind Speed 8 mph (South)    
Max Wind Speed 16 mph    
Max Gust Speed 22 mph    
Visibility 10 miles    
Events      
T = Trace of Precipitation, MM = Missing Value Source: NWS Daily Summary

Daily Weather History Graph

Daily Weather History Graph

Search for Another Location

Airport:

Trip Planner

Search our weather history database for the weather conditions in past years. The results will help you decide how hot, cold, wet, or windy it might be!

Date:

Astronomy

Oct. 24, 2011 Rise Set
Actual Time 7:29 AM MDT 6:21 PM MDT
Civil Twilight 7:02 AM MDT 6:48 PM MDT
Nautical Twilight 6:31 AM MDT 7:19 PM MDT
Astronomical Twilight 6:00 AM MDT 7:50 PM MDT
Moon 4:53 AM MDT (10/24) 4:47 PM MDT (10/24)
Length of Visible Light 11h 46m
Length of Day
10h 52m
Waning Crescent, 7% of the Moon is Illuminated
Oct 24
Waning Crescent
Oct 26
New
Nov 2
First Quarter
Nov 10
Full
Nov 18
Last Quarter

Hourly Weather History & Observations

Time (MDT) Temp. Windchill Dew Point Humidity Pressure Visibility Wind Dir Wind Speed Gust Speed Precip Events Conditions
12:53 AM 41.0 °F 35.2 °F 19.9 °F 43% 30.13 in 10.0 mi SE 9.2 mph - N/A   Clear
1:53 AM 39.0 °F 34.8 °F 19.9 °F 46% 30.13 in 10.0 mi SSE 5.8 mph - N/A   Clear
2:53 AM 36.0 °F 29.0 °F 19.9 °F 52% 30.13 in 10.0 mi SSE 9.2 mph - N/A   Clear
3:53 AM 37.0 °F 31.0 °F 19.0 °F 48% 30.11 in 10.0 mi SSE 8.1 mph - N/A   Clear
4:53 AM 34.0 °F 28.0 °F 19.0 °F 54% 30.12 in 10.0 mi SSE 6.9 mph - N/A   Clear
5:53 AM 33.1 °F 26.9 °F 18.0 °F 54% 30.14 in 10.0 mi SSE 6.9 mph - N/A   Clear
6:53 AM 33.1 °F 27.7 °F 18.0 °F 54% 30.15 in 10.0 mi South 5.8 mph - N/A   Clear
7:53 AM 35.1 °F 28.6 °F 17.1 °F 48% 30.19 in 10.0 mi SSE 8.1 mph - N/A   Clear
8:53 AM 43.0 °F 38.8 °F 17.1 °F 35% 30.16 in 10.0 mi South 6.9 mph - N/A   Clear
9:53 AM 51.1 °F - 19.9 °F 29% 30.14 in 10.0 mi NNW 3.5 mph - N/A   Clear
10:53 AM 55.9 °F - 21.0 °F 26% 30.12 in 10.0 mi Variable 5.8 mph - N/A   Clear
11:53 AM 62.1 °F - 21.0 °F 21% 30.07 in 10.0 mi Variable 4.6 mph - N/A   Clear
12:53 PM 66.0 °F - 21.9 °F 19% 30.02 in 10.0 mi Variable 3.5 mph - N/A   Clear
1:53 PM 71.1 °F - 21.9 °F 16% 29.96 in 10.0 mi NNW 4.6 mph - N/A   Clear
2:53 PM 73.0 °F - 21.9 °F 15% 29.93 in 10.0 mi WNW 6.9 mph - N/A   Clear
3:53 PM 75.0 °F - 23.0 °F 14% 29.90 in 10.0 mi WSW 15.0 mph 21.9 mph N/A   Clear
4:05 PM 75.2 °F - 23.0 °F 14% 30.05 in 10.0 mi SW 13.8 mph 20.7 mph N/A   Clear
4:53 PM 73.0 °F - 23.0 °F 15% 29.89 in 10.0 mi WSW 16.1 mph - N/A   Clear
5:53 PM 68.0 °F - 21.9 °F 17% 29.92 in 10.0 mi WSW 13.8 mph - N/A   Clear
6:53 PM 64.9 °F - 21.9 °F 19% 29.96 in 10.0 mi SSW 9.2 mph - N/A   Clear
7:53 PM 62.1 °F - 17.1 °F 18% 29.97 in 10.0 mi South 3.5 mph - N/A   Clear
8:53 PM 57.9 °F - 19.0 °F 22% 29.97 in 10.0 mi South 9.2 mph - N/A   Clear
9:53 PM 62.1 °F - 18.0 °F 18% 29.95 in 10.0 mi South 6.9 mph - N/A   Clear
10:53 PM 57.0 °F - 21.0 °F 25% 29.95 in 10.0 mi SSE 5.8 mph - N/A   Clear
11:53 PM 52.0 °F - 21.9 °F 31% 29.95 in 10.0 mi South 6.9 mph - N/A   Clear